Location: Veytaux
(46.4185°N, 6.9320°E)
Time: 07:28:44
(UTC+00:00)

Cosmos 304 Rocket - Pass Details

Date: 27 May 2022
Orbit: 679 x 686 km, 74.0° (Epoch: 01 July)

Event Time Altitude Azimuth Distance (km) Brightness Sun altitude
Exits shadow 00:15:54 47° 151° (SSE) 904 4.0 -21.5°
Maximum altitude 00:16:52 57° 107° (ESE) 809 4.0 -21.5°
Drops below altitude 10° 00:21:35 10° 29° (NNE) 2,144 7.4 -21.3°
Sets 00:23:56 0° 26° (NNE) 3,065 8.6 -21.2°
